PulseSat

PulseSat

COSMOS 2471 (701K)

Last updated on Jan. 18, 2019, 3 a.m. UTC

1 37372U 11009A   19017.36218358 -.00000002  00000-0  00000+0 0  9999
2 37372  65.6733  45.1031 0010138 237.0545 131.5499  2.13107660 61394
UTC
Height (km)
Latitude
Longitude
Inclination
Orbital Period

Next 30 passes for location: Hong Kong

Rise time Rise Azimuth (degrees) Set time Set Azimuth (degrees) Duration Max altitude (degrees)

No matching passes for this satellites

PulseSat

PulseSat is the new satellites software and hardware trackering solution by Pulsely.
Satellite Two Line Element Set source: US Air Force Space Command

Download PulseSat for iOS
© 2017 Pulsely Limited